Location: Unspecified
(48.2082°N, 0.0000°E)
Time: 19:07:01
(UTC+00:00)

Transit 4A - Pass Details

Date: 18 June 2019
Orbit: 864 x 981 km, 66.8° (Epoch: 25 August)

Event Time Altitude Azimuth Distance (km) Brightness Sun altitude
Rises 15:35:01 0° 323° (NW) 3,694 11.3 41.3°
Reaches altitude 10° 15:38:07 10° 337° (NNW) 2,744 10.6 40.8°
Maximum altitude 15:43:22 26° 32° (NNE) 1,838 9.4 39.9°
Drops below altitude 10° 15:48:34 10° 87° (E) 2,708 10.0 39.1°
Sets 15:51:35 0° 100° (E) 3,636 10.5 38.6°
